Regional Weather Roundup
Issued by NWS State College, PA

Home | Current Version | Previous Version | Graphics & Text | Print | Product List | Glossary Off
Versions: 1 2 3 4 5 6 7 8 9 10 11 12 13 14 15 16 17 18 19 20 21 22 23 24 25 26 27 28 29 30 31 32 33 34 35 36 37 38 39 40 41 42 43 44 45 46 47 48 49 50

000
ASUS41 KCTP 030410
RWRCTP

REGIONAL WEATHER ROUNDUP
NATIONAL WEATHER SERVICE STATE COLLEGE PA
1200 AM EDT THU SEP 03 2015

Note: "fair" indicates few or no clouds below 12,000 feet with no
significant weather and/or obstructions to visibility.

* = STATION THAT DOES NOT REPORT PRECIPITATION /E.G. RAIN...SNOW...ETC/
    THUNDER OR FOG.

PAZ002>004-007>009-013>016-020>023-029>032-030500-
WESTERN PENNSYLVANIA

CITY           SKY/WX    TMP DP  RH WIND       PRES   REMARKS
ERIE           PTCLDY    72  67  84 S6        29.97F
MEADVILLE      PTCLDY    70  66  87 CALM      30.02S
FRANKLIN*      PTCLDY    68  64  88 CALM      30.04S
NEW CASTLE     FAIR      69  69 100 CALM      30.01F
BEAVER COUNTY  NOT AVBL
BUTLER*        PTCLDY    70  64  83 CALM      30.03S
PITTSBURGH INT MOCLDY    75  66  73 CALM      30.01F
PITTSBURGH     PTCLDY    73  63  70 S6        30.01S
INDIANA*       PTCLDY    70  66  88 CALM      30.05F
LATROBE        NOT AVBL
WASHINGTON CO* PTCLDY    66  64  94 CALM      30.03F
$$

PAZ004>006-010>012-017>019-024>028-033>037-041-042-045-046-049>053-030500-
CENTRAL PENNSYLVANIA

CITY           SKY/WX    TMP DP  RH WIND       PRES   REMARKS
BRADFORD       CLEAR     62  60  93 CALM      30.05S FOG
DUBOIS         CLEAR     69  65  86 CALM      30.03S FOG
CLEARFIELD     CLEAR     70  65  84 CALM      30.02F
JOHNSTOWN      CLEAR     71  63  75 W7        30.06F
ALTOONA        CLEAR     68  65  90 S5        30.03S FOG
STATE COLLEGE  CLEAR     69  67  92 CALM      29.99F
WILLIAMSPORT   MOCLDY    73  68  84 CALM      29.94F
SELINSGROVE    MOCLDY    70  68  93 CALM      29.95S FOG
FT INDIANTOWN  PTCLDY    70  67  91 NE2       29.94F
CAPITAL CITY   PTCLDY    75  65  70 CALM      29.94S
HARRISBURG     PTCLDY    76  67  73 NW8       29.93S
YORK           CLEAR     67  65  93 CALM      29.95S FOG
$$

PAZ038>040-043-044-047-048-054-055-060>062-067>071-030500-
EASTERN PENNSYLVANIA

CITY           SKY/WX    TMP DP  RH WIND       PRES   REMARKS
SCRANTON       CLEAR     70  63  78 E5        29.96F
MOUNT POCONO   CLEAR     63  60  90 NW3       30.01S
ALLENTOWN      CLEAR     73  66  78 CALM      29.93S
QUAKERTOWN*    CLEAR     68  66  94 CALM      29.94S
READING        CLEAR     71  66  84 CALM      29.92F
LANCASTER      PTCLDY    73  68  84 W6        29.94S HAZE
COATESVILLE    CLEAR     73  64  73 NW6       29.95S
POTTSTOWN      CLEAR     72  65  78 CALM      29.94S
BLUE BELL      CLEAR     68  66  94 CALM      29.91S
DOYLESTOWN     CLEAR     70  65  84 CALM      29.91F
WILLOW GROVE   NOT AVBL
NORTH PHILA    CLEAR     78  62  57 CALM      29.92S
PHILADELPHIA   CLEAR     77  68  73 W8        29.92R
$$



USA.gov is the U.S. government's official web portal to all federal, state and local government web resources and services.